{"data":{"norad_id":52846,"epoch":"2026-09-20T04:55:11.283744Z","epoch_age_seconds":91881,"freshness":"FRESH","line1":"1 52846U 22062S   26263.20499171 -.00000393  00000+0 -89461-6 0  9999","line2":"2 52846  53.1586 230.4368 0001442  91.9197 268.1970 15.31700840235291","mean_motion":15.3170084,"eccentricity":0.0001442,"inclination_deg":53.1586,"raan_deg":230.4368,"arg_perigee_deg":91.9197,"mean_anomaly_deg":268.197,"bstar":-8.9461e-7,"rev_number":23529,"period_min":94.01313640332,"perigee_km":469.74988352887,"apogee_km":471.72509893214,"semimajor_km":6848.8744912305,"source":"CELESTRAK","updated_at":"2026-09-20T09:00:40.114050Z"}}